This is the latest recevied weather packets stored in our database for station/object F8KHU-13. If no packets are shown the sender has not sent any weather packets the latest 10 day(s).
| Time | Temp. | Humidity | Pressure | Rain* | Wind** | Luminosity | Snow |
|---|---|---|---|---|---|---|---|
| 1787905545 | 18.89° C | 31% | 1008.6 hPa | 0 mm | - | 0 W/m² | - |
| 1787904665 | 18.89° C | 31% | 1008.2 hPa | 0 mm | - | 0 W/m² | - |
| 1787904645 | 18.89° C | 32% | 1008.2 hPa | 0 mm | - | 0 W/m² | - |
| 1787904625 | 18.89° C | 32% | 1008.2 hPa | 0 mm | - | 0 W/m² | - |
| 1787903745 | 18.89° C | 36% | 1008.7 hPa | 0 mm | - | 0 W/m² | - |
| 1787902845 | 18.89° C | 38% | 1008.6 hPa | 0 mm | - | 0 W/m² | - |
| 1787902826 | 18.89° C | 40% | 1008.6 hPa | 0 mm | - | 0 W/m² | - |
| 1787901965 | 18.89° C | 36% | 1008.5 hPa | 0 mm | - | 0 W/m² | - |
| 1787901946 | 18.89° C | 34% | 1008.4 hPa | 0 mm | - | 0 W/m² | - |
| 1787901066 | 18.89° C | 31% | 1008.4 hPa | 0 mm | - | 0 W/m² | - |
| 1787901026 | 18.89° C | 31% | 1008.3 hPa | 0 mm | - | 0 W/m² | - |
| 1787900166 | 18.89° C | 31% | 1008.1 hPa | 0 mm | - | 0 W/m² | - |
| 1787900146 | 18.89° C | 31% | 1007.9 hPa | 0 mm | - | 0 W/m² | - |
| 1787899261 | 18.89° C | 31% | 1007.9 hPa | 0 mm | - | 0 W/m² | - |
| 1787899241 | 18.89° C | 37% | 1007.9 hPa | 0 mm | - | 0 W/m² | - |
| 1787898361 | 18.89° C | 35% | 1008.4 hPa | 0 mm | - | 0 W/m² | - |
| 1787898321 | 18.89° C | 36% | 1008.5 hPa | 0 mm | - | 0 W/m² | - |
| 1787846164 | 26.67° C | 24% | 1009 hPa | 0 mm | - | 0 W/m² | - |
| 1787846144 | 26.67° C | 24% | 1008.9 hPa | 0 mm | - | 0 W/m² | - |
| 1787845264 | 26.67° C | 24% | 1009.4 hPa | 0 mm | - | 0 W/m² | - |
| 1787845224 | 26.67° C | 24% | 1009.3 hPa | 0 mm | - | 0 W/m² | - |
| 1787844365 | 26.67° C | 24% | 1009.6 hPa | 0 mm | - | 0 W/m² | - |
| 1787844344 | 26.67° C | 24% | 1009.6 hPa | 0 mm | - | 0 W/m² | - |
| 1787843469 | 26.67° C | 24% | 1009.7 hPa | 0 mm | - | 0 W/m² | - |
| 1787842570 | 26.67° C | 24% | 1010 hPa | 0 mm | - | 0 W/m² | - |
* Rain latest hour (hover to see other rain measurements)
** Current wind speed in m/s (hover to see current wind gust speed)